DateTimeUTC,F1_A11,F1_S11,BsB_S11,BsG_S11,BsR_S11,BbsB_S11,BbsG_S11,BbsR_S11,BaB_A11,BaG_A11,BaR_A11,Tu_S11,T_S11,Uu_S11,U_S11,P_S11,T1_A11
2021-05-12T21:00:00Z,00000200,21000000,,,,,,,-000.08,-000.19,-000.11,18.4,25.2,,00.0,0671.0,31.1
2021-05-12T21:01:00Z,00000200,21000000,,,,,,,0000.11,0000.16,-000.44,18.4,25.2,,00.0,0671.0,31.1
2021-05-12T21:02:00Z,00000200,21000000,,,,,,,0000.27,0000.04,0000.14,18.4,25.2,,00.0,0671.0,31.1
2021-05-12T21:03:00Z,00000200,61000000,,,,,,,0000.59,0000.60,0000.69,18.4,25.2,,00.0,0671.0,31.1
2021-05-12T21:04:00Z,00000200,41000000,0002.88,0001.98,0001.33,0000.46,0000.46,0000.21,0001.34,0000.94,0001.13,18.6,25.0,00.0,00.0,0671.9,31.1
2021-05-12T21:05:00Z,00000200,01000000,0002.87,0001.92,0001.24,0000.60,0000.21,0000.33,0001.14,0000.95,0000.41,18.6,25.0,00.1,00.0,0672.0,31.1
2021-05-12T21:06:00Z,00000200,01000000,0003.04,0001.92,0001.43,0000.73,0000.61,0000.30,0000.87,0000.95,0000.54,18.6,25.0,00.0,00.0,0672.0,31.1
2021-05-12T21:07:00Z,00000200,01000000,0002.92,0002.01,0001.36,0000.76,0000.41,0000.11,0001.22,0001.35,0001.18,18.6,24.9,00.0,00.0,0672.0,31.1
2021-05-12T21:08:00Z,00000200,01000000,0003.00,0002.31,0001.30,0000.61,0000.40,0000.25,0001.36,0001.76,0001.08,18.6,24.9,00.0,00.0,0672.0,31.1
2021-05-12T21:09:00Z,00000200,01000000,0002.79,0002.05,0001.33,0000.62,0000.43,0000.31,0001.35,0001.13,0000.70,18.6,24.9,00.1,00.0,0672.0,31.1
2021-05-12T21:10:00Z,00000200,01000000,0002.93,0002.26,0001.39,0000.37,0000.26,0000.16,0001.30,0001.22,0001.10,18.6,24.9,00.0,00.0,0672.0,31.1
2021-05-12T21:11:00Z,00000200,01000000,0003.42,0001.95,0001.24,0000.43,0000.15,0000.48,0001.40,0001.06,0001.06,18.6,24.9,00.1,00.0,0672.0,31.1
2021-05-12T21:12:00Z,00000200,01000000,0003.07,0002.09,0001.54,0000.57,0000.26,0000.16,0001.39,0001.01,0000.70,18.6,24.9,00.1,00.0,0672.0,31.1
2021-05-12T21:13:00Z,00000200,01000000,0002.68,0002.04,0001.14,0000.14,0000.29,0000.18,0001.55,0001.24,0000.84,18.6,24.9,00.1,00.1,0672.1,31.1
2021-05-12T21:14:00Z,00000200,01000000,0002.52,0001.78,0001.25,0000.23,0000.35,0000.24,0001.06,0000.79,0000.79,18.6,24.9,00.0,00.0,0672.1,31.1
2021-05-12T21:15:00Z,00000200,01000000,0002.69,0001.86,0001.09,0000.64,0000.20,0000.22,0000.75,0001.02,0000.95,18.6,24.9,00.1,00.0,0672.1,31.1
2021-05-12T21:16:00Z,00000200,01000000,0002.54,0001.73,0001.14,0000.58,0000.53,0000.18,0001.29,0000.95,0000.48,18.6,24.9,00.1,00.0,0672.1,31.1
2021-05-12T21:17:00Z,00000200,01000000,0002.68,0002.04,0001.12,0000.48,0000.52,0000.14,0001.21,0001.21,0000.92,18.6,24.9,00.1,00.1,0672.1,31.1
2021-05-12T21:18:00Z,00000200,01000000,0002.39,0001.56,0001.05,0000.55,0000.44,0000.50,0001.05,0000.62,0000.64,18.6,24.9,00.1,00.0,0672.1,31.1
2021-05-12T21:19:00Z,00000200,01000000,0003.20,0001.87,0001.23,0000.24,0000.46,0000.54,0000.96,0001.41,0000.75,18.6,24.9,00.1,00.0,0672.1,31.1
2021-05-12T21:20:00Z,00000200,01000000,0002.67,0001.75,0001.06,0000.29,0000.32,0000.27,0000.85,0000.49,0000.60,18.6,24.9,00.1,00.1,0672.1,31.1
2021-05-12T21:21:00Z,00000200,01000000,0002.80,0001.95,0001.09,0000.78,0000.15,0000.25,0000.87,0001.17,0000.72,18.6,24.9,00.0,00.0,0672.1,31.1
2021-05-12T21:22:00Z,00000200,01000000,0003.37,0002.16,0001.19,0000.24,0000.36,0000.54,0001.72,0001.26,0001.27,18.6,24.9,00.1,00.1,0672.1,31.1
2021-05-12T21:23:00Z,00000200,01000000,0002.50,0001.73,0000.91,0000.56,0000.31,0000.42,0001.05,0000.96,0000.43,18.6,24.9,00.1,00.1,0672.1,31.1
2021-05-12T21:24:00Z,00000200,01000000,0002.23,0001.75,0001.24,0000.51,0000.29,0000.27,0000.82,0000.87,0000.81,18.6,24.9,00.1,00.1,0672.1,31.1
2021-05-12T21:25:00Z,00000200,01000000,0002.07,0001.52,0001.01,0000.57,0000.10,0000.16,0001.06,0000.89,0000.83,18.6,24.9,00.1,00.0,0672.1,31.1
2021-05-12T21:26:00Z,00000200,01000000,0002.29,0001.85,0001.07,0000.67,0000.29,0000.10,0001.30,0001.17,0000.52,18.6,24.9,00.1,00.1,0672.1,31.0
2021-05-12T21:27:00Z,00000200,01000000,0002.21,0001.76,0000.94,0000.29,0000.45,0000.24,0000.83,0000.67,0000.86,18.6,24.9,00.1,00.1,0672.2,31.1
2021-05-12T21:28:00Z,00000200,01000000,0002.32,0001.61,0001.10,0000.37,0000.36,0000.29,0000.85,0001.19,0000.27,18.6,24.8,00.1,00.1,0672.2,31.1
2021-05-12T21:29:00Z,00000200,01000000,0003.15,0001.82,0001.04,-000.15,0000.28,0000.24,0001.12,0000.91,0000.99,18.6,24.9,00.1,00.0,0672.2,31.1
2021-05-12T21:30:00Z,00000200,01000000,0003.09,0002.06,0001.06,0000.74,0000.18,0000.38,0001.50,0001.28,0000.70,18.6,24.9,00.1,00.1,0672.2,31.0
2021-05-12T21:31:00Z,00000200,01000000,0003.28,0002.03,0001.26,0000.23,0000.32,0000.48,0000.99,0001.11,0001.15,18.6,24.9,00.2,00.1,0672.2,31.0
2021-05-12T21:32:00Z,00000200,01000000,0002.63,0001.83,0000.92,0000.24,0000.59,0000.08,0001.68,0000.92,0000.74,18.6,24.9,00.2,00.1,0672.2,31.1
2021-05-12T21:33:00Z,00000200,01000000,0001.72,0001.08,0000.93,-000.08,0000.40,0000.34,0000.83,0001.10,0000.59,18.6,24.9,00.1,00.1,0672.2,31.1
2021-05-12T21:34:00Z,00000200,01000000,0001.81,0001.19,0000.63,0000.38,0000.51,-000.03,0000.66,0000.66,0000.59,18.6,24.9,00.2,00.1,0672.2,31.1
2021-05-12T21:35:00Z,00000200,01000000,0001.73,0000.91,0000.72,0000.15,0000.27,0000.29,0000.34,0000.41,0000.30,18.6,24.9,00.1,00.1,0672.2,31.1
2021-05-12T21:36:00Z,00000200,01000000,0001.48,0001.04,0000.64,0000.43,0000.17,-000.03,0000.60,0000.55,0000.42,18.6,24.9,00.2,00.1,0672.2,31.1
2021-05-12T21:37:00Z,00000200,01000000,0001.63,0001.38,0000.72,0000.49,0000.11,0000.24,0000.60,0000.53,0000.36,18.6,24.8,00.1,00.1,0672.2,31.1
2021-05-12T21:38:00Z,00000200,01000000,0001.56,0000.88,0000.56,0000.20,0000.37,0000.33,0000.92,0000.57,0000.58,18.6,24.8,00.1,00.1,0672.2,31.1
2021-05-12T21:39:00Z,00000200,01000000,0001.65,0001.05,0000.84,0000.27,0000.18,0000.41,0000.37,0000.20,0000.16,18.6,24.8,00.2,00.1,0672.2,31.1
2021-05-12T21:40:00Z,00000200,01000000,0001.68,0001.08,0000.74,0000.40,0000.22,-000.01,0000.98,0000.93,0001.02,18.6,24.8,00.1,00.1,0672.2,31.1
2021-05-12T21:41:00Z,00000200,01000000,0002.56,0001.42,0000.96,0000.73,0000.26,0000.22,0002.93,0002.80,0001.85,18.6,24.8,00.1,00.1,0672.2,31.1
2021-05-12T21:42:00Z,00000200,01000000,0002.20,0001.71,0001.19,0000.35,0000.37,0000.42,0001.81,0001.44,0000.89,18.6,24.8,00.2,00.1,0672.2,31.1
2021-05-12T21:43:00Z,00000200,01000000,0001.77,0001.75,0001.26,0000.07,0000.44,0000.35,0001.28,0001.75,0001.46,18.6,24.9,00.2,00.1,0672.2,31.1
2021-05-12T21:44:00Z,00000200,01000000,0002.83,0001.91,0000.92,0000.39,0000.29,-000.08,0001.50,0000.96,0000.74,18.6,24.8,00.1,00.1,0672.2,31.1
2021-05-12T21:45:00Z,00000200,01000000,0002.56,0001.81,0001.07,0000.37,0000.24,0000.21,0001.16,0001.05,0000.80,18.6,24.8,00.1,00.1,0672.3,31.1
2021-05-12T21:46:00Z,00000200,01000000,0002.96,0001.70,0001.18,0000.25,0000.56,0000.33,0001.93,0001.82,0001.68,18.6,24.8,00.2,00.1,0672.3,31.1
2021-05-12T21:47:00Z,00000200,01000000,0002.79,0001.62,0001.13,0000.23,0000.49,0000.15,0001.57,0001.69,0000.95,18.6,24.8,00.1,00.1,0672.3,31.1
2021-05-12T21:48:00Z,00000200,01000000,0002.14,0001.47,0001.07,0000.18,0000.39,0000.36,0001.43,0000.72,0000.65,18.6,24.8,00.1,00.1,0672.3,31.1
2021-05-12T21:49:00Z,00000200,01000000,0002.72,0002.23,0000.79,0000.14,0000.32,0000.11,0000.74,0001.25,0001.12,18.6,24.8,00.1,00.0,0672.3,31.1
2021-05-12T21:50:00Z,00000200,01000000,0002.57,0001.74,0001.15,0000.70,0000.33,0000.43,0001.48,0001.17,0000.86,18.6,24.8,00.1,00.1,0672.3,31.1
2021-05-12T21:51:00Z,00000200,01000000,0002.97,0001.54,0001.10,0000.82,0000.48,0000.20,0001.14,0000.71,0000.58,18.6,24.8,00.1,00.0,0672.3,31.1
2021-05-12T21:52:00Z,00000200,01000000,0002.21,0001.66,0000.96,0000.55,0000.28,0000.25,0001.53,0001.65,0001.01,18.6,24.8,00.1,00.1,0672.3,31.1
2021-05-12T21:53:00Z,00000200,01000000,0002.74,0001.45,0000.94,0000.22,0000.51,0000.22,0000.99,0000.82,0000.80,18.6,24.8,00.1,00.1,0672.3,31.0
2021-05-12T21:54:00Z,00000200,01000000,0002.41,0001.72,0000.84,0000.16,0000.25,0000.10,0000.91,0000.95,0000.59,18.6,24.8,00.1,00.1,0672.3,31.1
2021-05-12T21:55:00Z,00000200,01000000,0002.81,0001.53,0001.06,0000.37,0000.46,0000.58,0001.17,0000.88,0000.89,18.5,24.8,00.1,00.1,0672.3,31.1
2021-05-12T21:56:00Z,00000200,01000000,0002.73,0001.63,0001.03,0000.15,0000.48,0000.39,0001.42,0001.21,0000.84,18.6,24.8,00.1,00.1,0672.3,31.1
2021-05-12T21:57:00Z,00000200,41000000,,,,,,,0000.29,0000.18,0000.08,18.6,24.8,,00.0,0672.5,31.1
2021-05-12T21:58:00Z,00000200,61000000,,,,,,,0000.08,0000.29,0000.23,18.3,25.0,,00.0,0671.3,31.1
2021-05-12T21:59:00Z,00000200,21000000,,,,,,,-000.17,-000.26,0000.05,18.2,25.1,,00.0,0671.3,31.1
